Overview Statistics Trail Chart Weather Telemetry Raw packets
 

This is the latest recevied weather packets stored in our database for station/object WA6ODQ-13. If no packets are shown the sender has not sent any weather packets the latest 10 day(s).

<< 92 93 94 95 96 97 98 >>
Time Temp. Humidity Pressure Rain* Wind** Luminosity Snow
1787985844 20.56° C 63% 1010.5 hPa 0 mm - 0 W/m² -
1787985544 20° C 64% 1010.5 hPa 0 mm - 0 W/m² -
1787985239 20° C 64% 1010.7 hPa 0 mm - 0 W/m² -
1787984938 20° C 65% 1010.6 hPa 0 mm - 0 W/m² -
1787984633 19.44° C 67% 1010.7 hPa 0 mm - 0 W/m² -
1787984328 20° C 67% 1010.8 hPa 0 mm - 0 W/m² -
1787984026 20° C 67% 1010.7 hPa 0 mm - 0 W/m² -
1787983716 20° C 66% 1010.9 hPa 0 mm - 0 W/m² -
1787983411 20° C 66% 1010.7 hPa 0 mm - 0 W/m² -
1787983106 20.56° C 63% 1010.8 hPa 0 mm - 0 W/m² -
1787982802 20.56° C 62% 1010.9 hPa 0 mm - 0 W/m² -
1787982496 20° C 63% 1011 hPa 0 mm - 0 W/m² -
1787982193 20° C 65% 1010.8 hPa 0 mm - 0 W/m² -
1787981888 20.56° C 63% 1010.9 hPa 0 mm - 0 W/m² -
1787981587 20.56° C 61% 1010.7 hPa 0 mm - 0 W/m² -
1787981282 20.56° C 61% 1011.1 hPa 0 mm - 0 W/m² -
1787980976 20.56° C 60% 1011 hPa 0 mm - 0 W/m² -
1787980675 21.11° C 59% 1011 hPa 0 mm - 0 W/m² -
1787980370 21.11° C 59% 1011.1 hPa 0 mm - 0 W/m² -
1787980065 21.67° C 58% 1010.9 hPa 0 mm - 0 W/m² -
1787979761 21.11° C 57% 1011 hPa 0 mm - 0 W/m² -
1787979459 20.56° C 59% 1010.9 hPa 0 mm - 0 W/m² -
1787979159 21.11° C 60% 1011.2 hPa 0 mm - 0 W/m² -
1787978858 20.56° C 59% 1011 hPa 0 mm - 0 W/m² -
1787978553 20.56° C 62% 1011.2 hPa 0 mm - 0 W/m² -

* Rain latest hour (hover to see other rain measurements)
** Current wind speed in m/s (hover to see current wind gust speed)